User: anonymous   Login
Location: 22
(39.7117°N, 89.5929°W)
Time: 01:46:41
(UTC-05:00)
Language:

Altair - Orbit

View from above orbital plane
View from above orbital plane
View from above satellite
View from above satellite

Ground track
Ground track

The orbit is defined by the following mean orbital elements,

1 00050U          26140.02855043 +.00000000 +00000-0 +64395-3 0 00008
2 00050  47.2314 249.1302 0113551 290.7289  68.1363 12.20164764    02
Epoch (UTC): 20 May 2026 00:41:06
Eccentricity: 0.0113551
inclination: 47.2314°
perigee height: 1501 km
apogee height: 1682 km
right ascension of ascending node: 249.1302°
argument of perigee: 290.7289°
revolutions per day: 12.20164764
mean anomaly at epoch: 68.1363°

The dashed part of the orbit path shows where the satellite is in the earth's shadow,  

DLR